Location: Seattle
(47.6064°N, 122.3308°W)
Time: 05:20:15
(UTC-08:00)

N. Korean satellite - Pass Details

Date: 04 December 2022
Orbit: 407 x 441 km, 97.3° (Epoch: 05 February)

Event Time Altitude Azimuth Distance (km) Brightness Sun altitude
Rises 16:48:47 0° 177° (S) 2,451 10.5 -5.2°
Reaches altitude 10° 16:50:50 10° 182° (S) 1,593 9.6 -5.5°
Maximum altitude 16:54:11 52° 260° (W) 581 7.5 -6.0°
Drops below altitude 10° 16:57:37 10° 338° (NNW) 1,633 9.2 -6.5°
Sets 16:59:44 0° 344° (NNW) 2,521 10.1 -6.9°
